• Em Portugal
  • Lista de países
  • Para 7 dias
  • Temperatura da água
  • Mapas de satélite
  • Mapa do tempo
  • Widgets de tempo
  • user-avatar
    Iniciar Sessão

    Previsão horária em Palanga

    Hoje, 22 Outubro, Segunda-feira

    Tempo Temperatura Precipitação Vento Pressão Humidade
    00:00 +9°C° 0 mm 8 m/s 766 mmHg 84%
    01:00 +9°C° 0 mm 8 m/s 766 mmHg 83%
    02:00 +9°C° 0 mm 8 m/s 766 mmHg 84%
    03:00 +9°C° 0 mm 8 m/s 765 mmHg 85%
    04:00 +8°C° 0 mm 9 m/s 764 mmHg 86%
    05:00 +8°C° 0.3 mm 9 m/s 764 mmHg 87%
    06:00 +10°C° 0.3 mm 9 m/s 764 mmHg 87%
    07:00 +10°C° 0.3 mm 9 m/s 763 mmHg 88%
    08:00 +10°C° 0.9 mm 9 m/s 763 mmHg 89%
    09:00 +10°C° 0.9 mm 9 m/s 763 mmHg 90%
    10:00 +10°C° 0.9 mm 8 m/s 762 mmHg 90%
    11:00 +10°C° 1.2 mm 8 m/s 762 mmHg 89%
    12:00 +10°C° 1.2 mm 7 m/s 762 mmHg 88%
    13:00 +10°C° 1.2 mm 7 m/s 762 mmHg 87%
    14:00 +9°C° 0.2 mm 7 m/s 762 mmHg 83%
    15:00 +9°C° 0.2 mm 7 m/s 762 mmHg 79%
    16:00 +8°C° 0.2 mm 7 m/s 762 mmHg 75%
    17:00 +8°C° 0 mm 7 m/s 762 mmHg 74%
    18:00 +6°C° 0 mm 7 m/s 763 mmHg 74%
    19:00 +6°C° 0 mm 7 m/s 763 mmHg 73%
    20:00 +5°C° 0 mm 6 m/s 763 mmHg 73%
    21:00 +5°C° 0 mm 6 m/s 763 mmHg 73%
    22:00 +5°C° 0 mm 6 m/s 762 mmHg 73%
    23:00 +5°C° 0 mm 6 m/s 762 mmHg 75%

    Amanhã, 23 Outubro, Terça-feira

    Tempo Temperatura Precipitação Vento Pressão Humidade
    00:00 +4°C° 0 mm 6 m/s 762 mmHg 77%
    01:00 +4°C° 0 mm 6 m/s 761 mmHg 79%
    02:00 +4°C° 0.1 mm 6 m/s 760 mmHg 80%
    03:00 +4°C° 0.1 mm 6 m/s 759 mmHg 80%
    04:00 +4°C° 0.1 mm 6 m/s 758 mmHg 80%
    05:00 +5°C° 0.1 mm 7 m/s 757 mmHg 80%
    06:00 +5°C° 0.1 mm 7 m/s 756 mmHg 80%
    07:00 +5°C° 0.1 mm 8 m/s 755 mmHg 80%
    08:00 +5°C° 0.9 mm 9 m/s 753 mmHg 82%
    09:00 +6°C° 0.9 mm 11 m/s 751 mmHg 83%
    10:00 +5°C° 0.9 mm 13 m/s 750 mmHg 85%
    11:00 +5°C° 3.4 mm 12 m/s 748 mmHg 86%
    12:00 +5°C° 3.4 mm 12 m/s 746 mmHg 88%
    13:00 +5°C° 3.4 mm 12 m/s 744 mmHg 90%
    14:00 +6°C° 1.6 mm 11 m/s 743 mmHg 89%
    15:00 +7°C° 1.6 mm 10 m/s 741 mmHg 88%
    16:00 +8°C° 1.6 mm 9 m/s 740 mmHg 87%
    17:00 +7°C° 0.5 mm 9 m/s 740 mmHg 87%
    18:00 +7°C° 0.5 mm 9 m/s 740 mmHg 86%
    19:00 +7°C° 0.5 mm 9 m/s 739 mmHg 86%
    20:00 +7°C° 0.2 mm 9 m/s 739 mmHg 84%
    21:00 +6°C° 0.2 mm 9 m/s 739 mmHg 82%
    22:00 +6°C° 0.2 mm 8 m/s 739 mmHg 80%
    23:00 +6°C° 0.8 mm 9 m/s 738 mmHg 81%

    Depois de amanhã, 24 Outubro, Quarta-feira

    Tempo Temperatura Precipitação Vento Pressão Humidade
    00:00 +6°C° 0.8 mm 10 m/s 738 mmHg 81%
    01:00 +5°C° 0.8 mm 10 m/s 738 mmHg 82%
    02:00 +4°C° 0.6 mm 11 m/s 738 mmHg 81%
    03:00 +4°C° 0.6 mm 12 m/s 738 mmHg 80%
    04:00 +4°C° 0.6 mm 13 m/s 739 mmHg 79%
    05:00 +4°C° 0.5 mm 14 m/s 739 mmHg 76%
    06:00 +5°C° 0.5 mm 15 m/s 740 mmHg 74%
    07:00 +5°C° 0.5 mm 16 m/s 741 mmHg 72%
    08:00 +5°C° 0.4 mm 17 m/s 742 mmHg 73%
    09:00 +5°C° 0.4 mm 17 m/s 743 mmHg 73%
    10:00 +5°C° 0.4 mm 18 m/s 744 mmHg 74%
    11:00 +5°C° 0.3 mm 17 m/s 745 mmHg 71%
    12:00 +5°C° 0.3 mm 16 m/s 746 mmHg 69%
    13:00 +5°C° 0.3 mm 16 m/s 747 mmHg 66%
    14:00 +5°C° 0.1 mm 15 m/s 748 mmHg 66%
    15:00 +5°C° 0.1 mm 14 m/s 749 mmHg 65%
    16:00 +4°C° 0.1 mm 13 m/s 751 mmHg 65%
    17:00 +4°C° 0.2 mm 12 m/s 751 mmHg 68%
    18:00 +4°C° 0.2 mm 12 m/s 752 mmHg 71%
    19:00 +4°C° 0.2 mm 11 m/s 753 mmHg 74%
    20:00 +5°C° 0.1 mm 10 m/s 753 mmHg 75%
    21:00 +3°C° 0.1 mm 10 m/s 754 mmHg 76%
    22:00 +3°C° 0.1 mm 9 m/s 754 mmHg 76%
    23:00 +4°C° 0 mm 8 m/s 754 mmHg 76%

    25 Outubro, Quinta-feira

    Tempo Temperatura Precipitação Vento Pressão Humidade
    00:00 +4°C° 0 mm 8 m/s 754 mmHg 76%
    01:00 +4°C° 0 mm 7 m/s 754 mmHg 75%
    02:00 +4°C° 0 mm 7 m/s 754 mmHg 76%
    03:00 +3°C° 0 mm 7 m/s 754 mmHg 76%
    04:00 +3°C° 0 mm 7 m/s 754 mmHg 77%
    05:00 +3°C° 0 mm 6 m/s 753 mmHg 77%
    06:00 +3°C° 0 mm 6 m/s 753 mmHg 77%
    07:00 +3°C° 0 mm 5 m/s 753 mmHg 77%
    08:00 +5°C° 0 mm 5 m/s 752 mmHg 71%
    09:00 +7°C° 0 mm 5 m/s 752 mmHg 65%
    10:00 +8°C° 0 mm 4 m/s 751 mmHg 60%
    11:00 +8°C° 0.1 mm 4 m/s 751 mmHg 63%
    12:00 +8°C° 0.1 mm 4 m/s 750 mmHg 67%
    13:00 +8°C° 0.1 mm 4 m/s 750 mmHg 70%
    14:00 +8°C° 0.1 mm 5 m/s 749 mmHg 76%
    15:00 +7°C° 0.1 mm 6 m/s 749 mmHg 81%
    16:00 +7°C° 0.1 mm 6 m/s 749 mmHg 87%
    17:00 +7°C° 0 mm 6 m/s 749 mmHg 86%
    18:00 +5°C° 0 mm 6 m/s 749 mmHg 85%
    19:00 +5°C° 0 mm 6 m/s 750 mmHg 84%
    20:00 +5°C° 0 mm 6 m/s 750 mmHg 83%
    21:00 +5°C° 0 mm 5 m/s 750 mmHg 82%
    22:00 +5°C° 0 mm 5 m/s 750 mmHg 81%
    23:00 +5°C° 0 mm 4 m/s 750 mmHg 81%

    26 Outubro, Sexta-feira

    Tempo Temperatura Precipitação Vento Pressão Humidade
    00:00 +5°C° 0 mm 4 m/s 750 mmHg 81%
    01:00 +5°C° 0 mm 4 m/s 750 mmHg 80%
    02:00 +5°C° 0 mm 4 m/s 750 mmHg 81%
    03:00 +5°C° 0 mm 5 m/s 750 mmHg 81%
    04:00 +5°C° 0 mm 5 m/s 750 mmHg 82%
    05:00 +5°C° 0 mm 4 m/s 750 mmHg 82%
    06:00 +5°C° 0 mm 4 m/s 750 mmHg 83%
    07:00 +5°C° 0 mm 3 m/s 750 mmHg 84%
    08:00 +7°C° 0 mm 3 m/s 749 mmHg 79%
    09:00 +9°C° 0 mm 3 m/s 749 mmHg 73%
    10:00 +10°C° 0 mm 3 m/s 749 mmHg 68%
    11:00 +9°C° 0.8 mm 5 m/s 748 mmHg 74%
    12:00 +9°C° 0.8 mm 6 m/s 748 mmHg 79%
    13:00 +9°C° 0.8 mm 8 m/s 748 mmHg 84%
    14:00 +8°C° 0.6 mm 9 m/s 747 mmHg 85%
    15:00 +8°C° 0.6 mm 9 m/s 747 mmHg 85%
    16:00 +8°C° 0.6 mm 10 m/s 747 mmHg 85%
    17:00 +8°C° 0.5 mm 10 m/s 746 mmHg 84%
    18:00 +8°C° 0.5 mm 11 m/s 746 mmHg 83%
    19:00 +8°C° 0.5 mm 11 m/s 746 mmHg 82%
    20:00 +8°C° 0.3 mm 11 m/s 746 mmHg 79%
    21:00 +8°C° 0.3 mm 10 m/s 747 mmHg 76%
    22:00 +7°C° 0.3 mm 10 m/s 747 mmHg 74%
    23:00 +7°C° 0.1 mm 9 m/s 747 mmHg 74%

    27 Outubro, Sábado

    Tempo Temperatura Precipitação Vento Pressão Humidade
    00:00 +6°C° 0.1 mm 9 m/s 748 mmHg 74%
    01:00 +6°C° 0.1 mm 8 m/s 748 mmHg 74%
    02:00 +6°C° 0.1 mm 8 m/s 748 mmHg 76%
    03:00 +5°C° 0.1 mm 7 m/s 748 mmHg 77%
    04:00 +5°C° 0.1 mm 7 m/s 749 mmHg 79%
    05:00 +5°C° 0.1 mm 7 m/s 749 mmHg 79%
    06:00 +5°C° 0.1 mm 6 m/s 749 mmHg 80%
    07:00 +5°C° 0.1 mm 6 m/s 749 mmHg 80%
    08:00 +7°C° 0.1 mm 6 m/s 750 mmHg 76%
    09:00 +8°C° 0.1 mm 6 m/s 750 mmHg 72%
    10:00 +9°C° 0.1 mm 6 m/s 750 mmHg 68%
    11:00 +9°C° 0.2 mm 6 m/s 750 mmHg 69%
    12:00 +9°C° 0.2 mm 5 m/s 750 mmHg 70%
    13:00 +9°C° 0.2 mm 5 m/s 750 mmHg 71%
    14:00 +8°C° 0.2 mm 4 m/s 751 mmHg 75%
    15:00 +8°C° 0.2 mm 3 m/s 751 mmHg 79%
    16:00 +8°C° 0.2 mm 2 m/s 751 mmHg 82%
    17:00 +8°C° 0.3 mm 2 m/s 751 mmHg 84%
    18:00 +8°C° 0.3 mm 1 m/s 751 mmHg 85%
    19:00 +8°C° 0.3 mm 1 m/s 751 mmHg 86%
    20:00 +8°C° 0.1 mm 1 m/s 751 mmHg 86%
    21:00 +8°C° 0.1 mm 1 m/s 752 mmHg 87%
    22:00 +7°C° 0.1 mm 1 m/s 752 mmHg 88%
    23:00 +7°C° 0 mm 1 m/s 752 mmHg 88%

    28 Outubro, Domingo

    Tempo Temperatura Precipitação Vento Pressão Humidade
    00:00 +7°C° 0 mm 1 m/s 752 mmHg 89%
    01:00 +6°C° 0 mm 2 m/s 752 mmHg 89%
    02:00 +5°C° 0 mm 2 m/s 753 mmHg 90%
    03:00 +4°C° 0 mm 3 m/s 753 mmHg 91%
    04:00 +4°C° 0 mm 3 m/s 753 mmHg 92%
    05:00 +3°C° 0 mm 3 m/s 754 mmHg 92%
    06:00 +3°C° 0 mm 4 m/s 754 mmHg 93%
    07:00 +3°C° 0 mm 4 m/s 755 mmHg 93%
    08:00 +3°C° 0 mm 5 m/s 755 mmHg 89%
    09:00 +5°C° 0 mm 5 m/s 756 mmHg 85%
    10:00 +5°C° 0 mm 6 m/s 756 mmHg 80%
    11:00 +5°C° 0 mm 6 m/s 757 mmHg 78%
    12:00 +7°C° 0 mm 6 m/s 757 mmHg 75%
    13:00 +7°C° 0 mm 6 m/s 757 mmHg 73%
    14:00 +5°C° 0 mm 6 m/s 758 mmHg 75%
    15:00 +4°C° 0 mm 7 m/s 758 mmHg 77%
    16:00 +4°C° 0 mm 7 m/s 758 mmHg 79%
    17:00 +3°C° 0 mm 7 m/s 758 mmHg 79%
    18:00 +3°C° 0 mm 7 m/s 759 mmHg 80%
    19:00 +2°C° 0 mm 8 m/s 759 mmHg 81%
    20:00 +2°C° 0 mm 8 m/s 759 mmHg 80%
    21:00 +2°C° 0 mm 8 m/s 760 mmHg 80%
    22:00 +2°C° 0 mm 8 m/s 760 mmHg 80%
    23:00 +1°C° 0 mm 8 m/s 760 mmHg 78%
    Mostrar mais